| time (UTC) | temp F | wind direction | speed MPH | gust MPH | rain 1hr in | rain 24hr in | rain mn in | humidity % | barometer mb |
| 20260506233048 | 71 | 300 | 10.0 | 17.0 | 0.00 | 0.00 | 0.00 | 22 | 1008.5 |
| 20260506231548 | 70 | 302 | 8.0 | 12.0 | 0.00 | 0.00 | 0.00 | 24 | 1008.6 |
| 20260506230043 | 69 | 335 | 2.0 | 8.0 | 0.00 | 0.00 | 0.00 | 25 | 1008.9 |
| 20260506224540 | 70 | 250 | 5.0 | 16.0 | 0.00 | 0.00 | 0.00 | 24 | 1009.0 |
| 20260506223040 | 70 | 350 | 7.0 | 11.0 | 0.00 | 0.00 | 0.00 | 24 | 1009.2 |
| 20260506221534 | 69 | 331 | 7.0 | 14.0 | 0.00 | 0.00 | 0.00 | 24 | 1009.6 |
| 20260506220032 | 69 | 5 | 5.0 | 12.0 | 0.00 | 0.00 | 0.00 | 24 | 1009.7 |
| 20260506214529 | 68 | 296 | 7.0 | 13.0 | 0.00 | 0.00 | 0.00 | 24 | 1010.0 |
| 20260506213025 | 67 | 277 | 4.0 | 10.0 | 0.00 | 0.00 | 0.00 | 25 | 1010.3 |
| 20260506211521 | 66 | 270 | 7.0 | 15.0 | 0.00 | 0.00 | 0.00 | 24 | 1010.6 |
| 20260506210018 | 66 | 14 | 7.0 | 13.0 | 0.00 | 0.00 | 0.00 | 24 | 1010.8 |
| 20260506204518 | 65 | 271 | 6.0 | 13.0 | 0.00 | 0.00 | 0.00 | 24 | 1010.9 |
| 20260506203014 | 64 | 87 | 2.0 | 14.0 | 0.00 | 0.00 | 0.00 | 24 | 1011.2 |
| 20260506201511 | 63 | 279 | 8.0 | 14.0 | 0.00 | 0.00 | 0.00 | 25 | 1011.3 |
| 20260506200009 | 63 | 342 | 9.0 | 13.0 | 0.00 | 0.00 | 0.00 | 25 | 1011.6 |
| 20260506194508 | 62 | 239 | 3.0 | 12.0 | 0.00 | 0.00 | 0.00 | 26 | 1011.9 |
| 20260506193001 | 60 | 254 | 6.0 | 11.0 | 0.00 | 0.00 | 0.00 | 27 | 1012.0 |
| 20260506191600 | 60 | 183 | 8.0 | 12.0 | 0.00 | 0.00 | 0.00 | 26 | 1012.4 |
| 20260506190056 | 58 | 221 | 7.0 | 16.0 | 0.00 | 0.00 | 0.00 | 27 | 1012.6 |
| 20260506184555 | 58 | 247 | 6.0 | 14.0 | 0.00 | 0.00 | 0.00 | 27 | 1012.9 |
| 20260506183047 | 57 | 249 | 9.0 | 16.0 | 0.00 | 0.00 | 0.00 | 27 | 1013.2 |
| 20260506181544 | 56 | 233 | 8.0 | 12.0 | 0.00 | 0.00 | 0.00 | 27 | 1013.4 |
| 20260506180047 | 55 | 229 | 9.0 | 13.0 | 0.00 | 0.00 | 0.00 | 27 | 1013.6 |
| 20260506174536 | 54 | 202 | 9.0 | 14.0 | 0.00 | 0.00 | 0.00 | 25 | 1013.9 |
| 20260506173031 | 53 | 259 | 8.0 | 13.0 | 0.00 | 0.00 | 0.00 | 25 | 1014.1 |
| 20260506171538 | 52 | 188 | 10.0 | 13.0 | 0.00 | 0.00 | 0.00 | 31 | 1014.4 |
| 20260506170019 | 51 | 221 | 8.0 | 15.0 | 0.00 | 0.00 | 0.00 | 33 | 1014.8 |
| 20260506164516 | 50 | 169 | 6.0 | 13.0 | 0.00 | 0.00 | 0.00 | 35 | 1014.9 |
| 20260506163019 | 49 | 168 | 7.0 | 12.0 | 0.00 | 0.00 | 0.00 | 40 | 1015.0 |
| 20260506161514 | 47 | 194 | 7.0 | 13.0 | 0.00 | 0.00 | 0.00 | 43 | 1015.2 |
| 20260506160007 | 46 | 202 | 6.0 | 10.0 | 0.00 | 0.00 | 0.00 | 44 | 1015.5 |
| 20260506154558 | 45 | 229 | 6.0 | 10.0 | 0.00 | 0.00 | 0.00 | 48 | 1015.6 |
| 20260506153053 | 43 | 221 | 4.0 | 10.0 | 0.00 | 0.00 | 0.00 | 51 | 1016.1 |
| 20260506151548 | 41 | 224 | 6.0 | 9.0 | 0.00 | 0.00 | 0.00 | 53 | 1016.2 |
| 20260506150042 | 41 | 191 | 6.0 | 10.0 | 0.00 | 0.00 | 0.00 | 53 | 1016.3 |
| 20260506144537 | 40 | 180 | 4.0 | 8.0 | 0.00 | 0.00 | 0.00 | 54 | 1016.4 |
| 20260506143032 | 38 | 170 | 4.0 | 6.0 | 0.00 | 0.00 | 0.00 | 52 | 1016.6 |
| 20260506141527 | 37 | 145 | 2.0 | 5.0 | 0.00 | 0.00 | 0.00 | 52 | 1016.7 |
| 20260506140023 | 35 | 221 | 1.0 | 3.0 | 0.00 | 0.00 | 0.00 | 55 | 1016.8 |
| 20260506134541 | 30 | 313 | 0.0 | 3.0 | 0.00 | 0.00 | 0.00 | 60 | 1016.8 |
| 20260506133014 | 0 | 0.0 | 0.0 | 0.00 | 0.00 | 0.00 | 1016.9 | ||
| 20260506131510 | 0 | 0.0 | 0.0 | 0.00 | 0.00 | 0.00 | 1016.9 | ||
| 20260506130007 | 0 | 0.0 | 0.0 | 0.00 | 0.00 | 0.00 | 1017.0 | ||
| 20260506124501 | 0 | 0.0 | 0.0 | 0.00 | 0.00 | 0.00 | 1017.1 | ||
| 20260506123057 | 0 | 0.0 | 0.0 | 0.00 | 0.00 | 0.00 | 1017.1 | ||
| 20260506121601 | 0 | 0.0 | 0.0 | 0.00 | 0.00 | 0.00 | 1017.2 | ||
| 20260506120049 | 0 | 0.0 | 0.0 | 0.00 | 0.00 | 0.00 | 1017.4 | ||
| 20260506114549 | 0 | 0.0 | 0.0 | 0.00 | 0.00 | 0.00 | 1017.5 | ||
| 20260506113041 | 0 | 0.0 | 0.0 | 0.00 | 0.00 | 0.00 | 1017.5 | ||
| 20260506111535 | 0 | 0.0 | 0.0 | 0.00 | 0.00 | 0.00 | 1017.7 | ||
| 20260506110031 | 0 | 0.0 | 0.0 | 0.00 | 0.00 | 0.00 | 1017.9 | ||
| 20260506104527 | 0 | 0.0 | 0.0 | 0.00 | 0.00 | 0.00 | 1018.1 | ||
| 20260506103026 | 16 | 300 | 2.0 | 4.0 | 0.00 | 0.00 | 0.00 | 71 | 1018.1 |
| 20260506101522 | 16 | 300 | 2.0 | 4.0 | 0.00 | 0.00 | 0.00 | 71 | 1018.2 |
| 20260506100030 | 16 | 300 | 1.0 | 3.0 | 0.00 | 0.00 | 0.00 | 71 | 1018.4 |
| 20260506094517 | 17 | 300 | 2.0 | 3.0 | 0.00 | 0.00 | 0.00 | 71 | 1018.5 |
| 20260506093013 | 17 | 300 | 1.0 | 3.0 | 0.00 | 0.00 | 0.00 | 70 | 1018.6 |
| 20260506091512 | 17 | 300 | 2.0 | 4.0 | 0.00 | 0.00 | 0.00 | 70 | 1018.7 |
| 20260506090008 | 18 | 300 | 1.0 | 4.0 | 0.00 | 0.00 | 0.00 | 68 | 1018.8 |
| 20260506084507 | 18 | 300 | 1.0 | 3.0 | 0.00 | 0.00 | 0.00 | 68 | 1018.8 |
| 20260506083005 | 19 | 300 | 0.0 | 4.0 | 0.00 | 0.00 | 0.00 | 67 | 1018.8 |
| 20260506081604 | 20 | 283 | 3.0 | 6.0 | 0.00 | 0.00 | 0.00 | 67 | 1019.1 |
| 20260506073049 | 21 | 293 | 2.0 | 5.0 | 0.00 | 0.00 | 0.00 | 65 | 1019.3 |
| 20260506071551 | 22 | 303 | 1.0 | 5.0 | 0.00 | 0.00 | 0.00 | 64 | 1019.3 |
| 20260506061539 | 23 | 322 | 4.0 | 6.0 | 0.00 | 0.00 | 0.00 | 59 | 1019.5 |
| 20260506044521 | 28 | 314 | 2.0 | 4.0 | 0.00 | 0.00 | 0.00 | 53 | 1019.6 |
| 20260506043016 | 28 | 314 | 1.0 | 3.0 | 0.00 | 0.00 | 0.00 | 51 | 1019.7 |
| 20260506041512 | 29 | 314 | 1.0 | 3.0 | 0.00 | 0.00 | 0.00 | 50 | 1019.7 |
| 20260506040008 | 31 | 314 | 2.0 | 4.0 | 0.00 | 0.00 | 0.00 | 48 | 1019.7 |
| 20260506034506 | 34 | 18 | 4.0 | 6.0 | 0.00 | 0.00 | 0.00 | 45 | 1019.6 |
| 20260506033100 | 35 | 30 | 4.0 | 6.0 | 0.00 | 0.00 | 0.00 | 44 | 1019.5 |
| 20260506031657 | 36 | 25 | 4.0 | 6.0 | 0.00 | 0.00 | 0.00 | 43 | 1019.5 |
| 20260506030054 | 37 | 25 | 4.0 | 6.0 | 0.00 | 0.00 | 0.00 | 41 | 1019.4 |
| 20260506024558 | 40 | 9 | 3.0 | 6.0 | 0.00 | 0.00 | 0.00 | 39 | 1019.3 |
| 20260506023044 | 43 | 355 | 6.0 | 10.0 | 0.00 | 0.00 | 0.00 | 37 | 1019.3 |
| 20260506021541 | 44 | 12 | 9.0 | 14.0 | 0.00 | 0.00 | 0.00 | 36 | 1019.3 |
| 20260506020041 | 45 | 360 | 12.0 | 18.0 | 0.00 | 0.00 | 0.00 | 35 | 1019.2 |
| 20260506014537 | 45 | 13 | 12.0 | 18.0 | 0.00 | 0.00 | 0.00 | 35 | 1019.2 |
| 20260506013137 | 46 | 350 | 12.0 | 16.0 | 0.00 | 0.00 | 0.00 | 35 | 1019.1 |
| 20260506011559 | 46 | 5 | 14.0 | 19.0 | 0.00 | 0.00 | 0.00 | 34 | 1019.1 |
| 20260506010033 | 47 | 19 | 12.0 | 19.0 | 0.00 | 0.00 | 0.00 | 33 | 1019.0 |
| 20260506004540 | 47 | 311 | 13.0 | 20.0 | 0.00 | 0.00 | 0.00 | 33 | 1019.0 |
| 20260506003031 | 48 | 360 | 13.0 | 18.0 | 0.00 | 0.00 | 0.00 | 32 | 1018.9 |
| 20260506001530 | 47 | 23 | 14.0 | 18.0 | 0.00 | 0.00 | 0.00 | 35 | 1019.0 |
| 20260506000045 | 48 | 338 | 10.0 | 20.0 | 0.00 | 0.00 | 0.00 | 33 | 1019.0 |
| 20260505234539 | 48 | 331 | 14.0 | 21.0 | 0.00 | 0.00 | 0.00 | 33 | 1018.9 |